Theta_e
314 313 315 314 315 302 307 307 302 304 311 308 304 305 306 305 302 299 306 304 306 310 311 313 315 315 315 316 317 319 321 324 329 329 330 330 329 332 335 335 335 342 343 344 345 348 350 354 354 354 356 359 361 363 364 365 366 364 364 364 364 364 365
314 317 315 315 315 314 309 302 305 311 313 311 305 298 303 300 297 299 303 301 303 303 300 312 313 313 314 315 315 317 320 323 324 325 328 330 328 330 335 339 341 342 344 346 346 349 351 353 354 355 359 360 362 364 364 365 366 365 365 364 364 365 364
313 316 315 312 315 315 310 307 313 304 300 299 305 303 296 297 296 299 303 304 304 305 305 309 310 311 312 314 318 316 316 318 322 323 328 331 331 331 335 338 340 340 340 343 347 345 349 356 358 357 359 359 361 363 364 366 366 366 365 364 365 366 365
312 313 311 303 307 313 314 315 310 312 308 303 301 302 304 304 299 299 300 303 301 309 310 311 311 313 314 314 315 315 316 318 321 323 325 331 331 331 333 338 337 336 337 339 347 352 353 355 356 356 356 356 357 360 365 366 367 367 367 365 367 366 366
311 304 309 306 307 305 306 307 307 307 307 310 308 307 303 301 300 301 300 298 303 310 314 314 314 315 316 316 316 319 317 318 321 323 325 330 331 331 331 334 338 337 340 346 352 354 355 356 358 357 355 355 356 358 363 365 366 365 366 366 366 366 367
305 306 312 311 311 310 307 306 306 307 304 302 299 298 307 304 301 297 300 299 310 312 316 315 316 318 317 317 317 317 318 318 322 323 326 333 331 331 332 332 335 342 346 348 351 354 353 354 356 356 356 356 356 357 361 364 365 365 365 365 366 368 367
307 310 312 314 314 313 311 309 307 310 308 306 302 295 300 304 304 306 305 302 307 317 317 320 317 318 318 318 318 318 317 319 319 322 323 330 332 330 329 332 332 335 341 340 340 344 347 351 356 356 357 355 355 357 360 363 363 364 365 365 365 366 365
312 312 313 314 314 313 310 309 310 309 306 307 305 304 307 303 303 301 301 301 306 314 330 323 318 323 319 320 318 319 318 319 321 321 322 328 333 334 332 332 334 337 341 344 341 341 348 355 358 357 357 357 357 357 359 361 362 364 364 365 364 364 364
305 306 308 309 312 312 308 307 308 310 310 310 309 309 310 304 304 303 300 296 304 313 321 319 318 317 317 317 318 319 317 320 320 322 325 329 336 335 333 334 339 345 346 344 343 344 351 357 356 358 358 358 357 358 358 359 361 363 364 365 364 362 362
295 295 295 298 302 305 308 310 309 309 308 309 307 302 306 299 309 309 302 302 310 314 320 316 315 315 320 318 318 319 320 321 320 322 326 336 335 335 336 341 342 340 345 347 346 348 358 358 355 359 360 358 357 357 358 359 360 362 364 363 363 363 362
302 304 308 309 310 308 304 306 308 307 309 310 310 308 305 301 308 305 309 309 309 311 312 315 314 315 315 315 317 317 319 324 332 342 339 340 345 338 337 343 343 344 345 346 345 348 356 353 353 356 357 357 357 360 360 359 360 361 363 363 363 362 363
309 312 310 311 311 307 307 306 306 308 307 308 308 305 303 317 307 301 313 323 308 310 313 315 316 315 319 318 318 319 324 325 326 332 342 341 333 339 342 346 353 351 348 354 358 360 357 354 355 354 356 356 358 361 360 360 359 360 361 362 362 363 364
309 311 311 312 310 309 309 308 307 307 308 307 306 307 309 312 306 305 316 321 314 313 313 313 315 318 319 317 318 319 321 324 329 334 329 329 328 332 335 353 359 356 352 358 362 360 357 355 354 354 354 356 359 362 360 360 358 359 362 361 362 362 364
308 309 310 311 310 310 310 308 308 308 308 307 307 308 310 310 314 314 314 320 313 314 313 314 316 318 318 319 321 322 323 322 332 325 327 325 328 330 333 340 345 360 360 366 366 365 363 356 356 352 354 357 358 359 358 358 361 360 362 362 362 360 362
305 307 309 310 310 308 307 309 309 309 309 308 308 308 309 311 310 310 311 315 315 316 320 319 319 321 319 320 319 320 324 322 321 321 321 324 327 326 328 342 339 350 353 359 364 365 364 361 360 355 355 356 356 354 356 356 360 360 361 363 362 361 362
302 306 307 308 309 309 308 307 309 309 308 306 308 306 309 309 309 311 310 312 310 316 319 318 320 320 321 319 320 320 321 320 324 321 321 326 329 327 330 337 339 348 347 352 357 358 358 357 358 357 359 356 354 351 353 355 356 357 358 362 362 363 364
300 305 307 307 307 306 303 304 307 310 310 310 311 311 311 311 312 308 307 310 316 321 321 318 318 318 319 319 318 321 322 332 323 322 322 323 324 331 338 342 350 345 344 347 356 350 349 350 350 351 358 352 354 354 355 356 357 356 355 357 364 365 365
299 304 305 307 303 296 298 310 312 312 310 310 309 308 310 312 312 311 314 316 320 320 318 317 317 318 319 323 327 324 329 330 330 322 323 322 323 324 325 329 331 337 342 349 356 353 355 354 348 350 354 353 356 355 354 358 356 356 357 358 364 365 366
298 303 304 299 295 297 310 313 314 315 313 312 311 312 312 312 312 313 313 315 318 320 320 320 321 324 321 322 322 321 322 326 324 326 323 326 327 332 336 341 331 352 349 346 356 350 342 352 354 352 352 352 357 355 355 355 356 361 360 358 361 367 365
302 300 299 292 294 307 311 312 314 315 313 313 312 309 312 314 313 315 315 316 317 320 320 320 322 323 320 322 324 326 322 322 321 320 322 323 323 324 328 340 353 349 337 344 332 350 342 344 344 351 350 349 348 350 350 351 353 357 362 360 360 369 366
296 298 297 298 307 304 307 307 311 311 309 310 308 305 310 316 315 315 315 317 317 317 317 319 320 321 320 319 322 321 321 322 321 321 322 322 325 340 346 328 329 357 360 347 352 356 352 349 345 341 348 349 348 347 348 348 354 353 358 362 359 366 367
300 297 296 297 297 295 302 309 313 315 315 315 315 311 308 314 315 317 316 315 316 316 316 316 318 318 316 314 318 324 322 322 321 324 335 330 339 343 346 352 335 356 364 358 352 346 350 352 348 347 343 349 352 352 350 350 352 351 353 359 360 364 368
297 296 293 295 293 298 307 308 312 314 315 315 315 309 304 315 315 316 315 314 317 318 318 319 321 318 314 314 324 330 332 334 334 336 338 344 347 347 348 352 349 351 358 358 353 354 355 348 354 356 350 346 345 355 354 347 347 349 353 356 360 361 367
294 295 294 293 300 299 306 310 312 314 316 315 313 299 301 314 316 321 317 315 318 319 321 325 323 319 315 316 321 331 333 334 336 336 337 340 346 348 347 348 349 358 360 358 352 352 352 359 352 354 348 350 354 365 354 349 347 351 352 356 363 364 368
295 294 295 299 301 309 310 310 313 314 316 313 302 296 311 320 322 322 320 318 323 327 326 326 322 325 327 328 331 333 335 335 336 337 340 343 345 347 346 347 356 353 355 353 352 354 367 370 365 359 354 355 356 359 368 354 350 350 356 361 366 366 369
293 295 292 294 300 306 309 314 312 313 310 300 300 314 320 323 323 324 324 324 326 327 327 327 327 327 328 330 332 334 335 337 338 340 345 348 348 349 351 355 356 356 354 358 357 353 358 362 359 358 367 368 375 374 375 362 357 359 370 366 367 368 368
295 296 294 292 288 303 310 311 311 314 306 307 313 317 319 322 323 324 325 326 327 328 329 329 329 329 328 330 331 332 334 336 338 340 341 346 346 347 346 350 355 354 353 354 352 354 355 364 364 364 359 366 368 371 372 377 374 374 383 369 370 369 368
290 291 290 291 302 306 311 311 303 309 311 315 317 315 316 322 323 322 324 326 327 328 328 327 328 328 329 331 331 332 336 338 340 341 344 345 343 341 344 349 354 353 351 353 358 360 362 362 363 367 368 367 366 368 369 371 382 369 381 375 374 370 367
294 293 297 305 306 307 310 311 309 311 314 314 315 314 317 320 320 322 323 323 325 327 328 328 329 329 331 331 331 332 334 337 338 339 340 342 345 344 350 352 355 354 356 357 357 360 362 362 367 371 370 368 359 359 366 369 369 375 373 379 374 370 369
303 304 304 306 308 309 310 309 310 311 312 313 313 314 315 318 319 320 320 322 323 325 327 327 329 329 330 330 331 333 336 337 340 343 343 345 349 350 350 351 351 353 355 358 358 357 359 360 360 367 371 365 363 371 372 373 369 367 370 376 375 372 370
296 291 304 304 306 309 309 308 311 313 312 312 314 316 316 316 317 317 320 321 321 324 325 327 327 329 331 331 332 334 336 338 339 340 344 347 348 348 348 349 350 352 353 352 354 354 354 357 360 360 362 363 364 367 371 369 367 371 378 375 373 374 373
296 297 303 305 306 307 308 308 308 309 311 313 315 316 316 316 316 317 318 320 319 321 323 327 328 328 332 332 333 333 335 337 339 342 343 345 346 348 349 349 350 352 352 352 351 352 352 354 356 357 358 360 363 365 361 366 369 370 371 372 367 369 367
300 303 304 305 306 305 307 308 310 310 310 311 314 315 315 315 315 317 318 318 318 319 322 326 327 328 331 333 335 334 335 338 341 343 346 346 346 347 348 349 350 351 351 350 350 349 350 353 354 357 358 360 362 364 366 367 367 366 367 366 369 366 365
295 296 300 304 298 298 304 307 309 310 312 312 312 313 313 314 314 315 315 316 318 319 321 323 325 326 331 334 336 333 335 337 341 344 345 346 345 347 348 348 349 351 351 351 349 349 350 352 353 354 355 358 360 362 366 369 370 368 368 370 369 365 364
294 301 304 307 305 304 305 306 308 310 312 312 311 311 311 313 315 315 315 315 316 318 319 321 324 326 329 333 334 334 334 337 341 343 345 345 345 344 345 345 347 348 349 350 349 348 349 350 351 351 353 354 357 360 363 366 368 370 368 370 367 365 364
302 304 304 306 304 303 305 308 309 309 312 311 310 311 312 313 314 315 315 315 315 315 317 319 322 325 329 331 333 333 336 338 341 344 344 344 345 344 345 345 345 346 346 347 347 347 349 349 349 350 349 351 354 356 360 363 365 365 363 362 361 360 360
300 305 306 307 306 307 308 309 309 310 311 311 310 311 311 312 313 314 314 314 316 315 315 316 320 325 329 333 333 334 335 338 341 343 344 345 345 345 343 344 345 346 346 347 348 348 349 349 348 347 348 348 351 352 356 356 358 359 359 359 359 359 359
Wind_Speed
18 22 20 19 17 13 15 15 18 16 12 13 9 10 13 13 11 12 8 11 13 11 13 13 12 12 18 21 19 16 15 18 21 21 21 22 20 20 20 21 19 19 19 18 16 16 16 21 22 21 20 20 21 20 20 21 21 21 22 22 20 19 18
21 19 21 21 20 12 12 16 15 13 14 12 10 9 6 10 11 9 12 14 12 13 10 11 14 16 12 14 21 20 16 14 20 20 21 21 20 18 20 20 20 18 18 18 18 19 23 25 26 23 21 19 18 18 21 23 21 21 20 20 20 19 19
21 18 19 20 22 21 14 14 13 16 13 15 12 8 12 11 11 8 10 13 12 13 10 10 16 16 16 15 14 19 19 17 18 18 21 23 21 17 18 23 20 21 21 23 23 26 27 26 23 21 18 18 17 17 19 22 24 25 24 21 20 17 18
21 17 17 19 19 21 22 13 16 15 10 12 12 11 7 7 9 9 9 9 9 9 10 13 12 15 14 15 14 16 20 16 13 15 18 23 20 16 17 18 19 19 20 23 25 25 25 25 24 23 24 22 23 21 20 21 21 20 20 20 18 18 18
21 18 16 20 19 19 18 16 13 15 11 8 10 10 13 8 7 7 6 9 8 10 7 13 14 15 15 14 13 9 14 17 15 14 10 20 19 16 15 18 19 20 19 21 22 21 20 21 20 21 22 24 23 21 22 22 22 23 23 22 21 18 17
20 20 19 21 22 21 19 17 14 15 16 14 15 13 12 12 8 4 6 7 3 5 13 11 11 11 14 13 12 12 15 17 15 13 14 17 17 17 15 17 21 20 19 17 16 14 15 18 21 23 22 21 23 23 22 22 22 21 23 21 19 18 17
18 21 22 21 21 21 21 18 16 15 14 13 11 9 10 11 11 10 7 9 1 4 9 4 8 11 11 12 11 11 13 15 18 17 18 16 18 18 19 17 18 17 15 15 14 15 16 20 20 22 21 22 23 24 23 21 22 23 22 22 19 16 16
16 21 18 20 20 21 21 20 19 16 16 17 13 9 7 9 12 11 8 8 3 7 1 3 3 6 11 10 12 11 13 13 12 19 18 13 20 16 16 17 18 16 17 15 15 17 17 16 16 20 20 20 20 21 22 21 24 24 23 21 19 17 17
9 17 16 17 20 18 15 17 19 20 17 18 16 11 9 10 12 12 9 10 4 9 6 8 1 3 8 13 11 13 14 11 9 14 13 13 19 16 16 14 12 19 17 16 15 14 14 15 16 16 17 18 20 20 21 21 21 22 20 19 20 19 20
15 19 19 19 19 19 15 18 21 25 23 21 15 15 10 7 8 12 10 8 4 10 7 7 5 6 6 10 9 9 12 10 12 12 11 15 18 16 13 9 14 20 17 16 15 14 12 14 15 13 15 18 19 19 21 20 19 19 20 19 19 19 20
12 9 7 14 14 14 19 20 24 24 25 21 16 10 11 10 7 11 8 8 10 11 11 8 8 9 10 15 13 13 10 11 14 12 11 10 8 14 13 7 10 12 16 17 17 15 14 19 17 15 17 19 18 15 18 19 18 18 18 18 17 19 20
12 7 7 7 10 22 21 22 22 24 25 24 20 15 13 6 8 6 8 7 13 11 11 12 10 8 6 5 12 11 14 10 11 12 9 13 12 8 7 5 7 11 12 11 13 15 17 17 16 15 16 18 16 14 16 17 18 18 16 17 16 16 17
17 17 6 6 9 10 13 24 22 24 25 25 24 18 15 13 10 7 9 7 7 11 8 13 11 9 9 6 12 9 9 14 13 8 10 11 11 9 7 7 7 7 8 7 9 11 13 15 16 15 15 16 14 12 15 15 18 19 16 16 16 17 16
16 13 17 11 6 8 14 17 23 21 24 26 25 20 18 15 9 7 10 5 3 9 11 9 8 10 10 9 7 12 11 8 5 5 6 13 12 12 11 8 8 5 5 6 7 7 8 12 12 15 13 12 14 15 15 16 15 16 14 16 15 17 17
16 18 15 11 10 11 13 15 20 21 21 23 24 22 19 17 13 15 12 13 7 7 10 10 11 8 9 8 9 9 10 14 13 11 9 13 14 14 12 9 9 7 6 7 6 7 8 9 9 11 11 11 12 17 17 18 15 15 15 14 16 17 15
11 12 13 19 12 12 15 17 19 25 24 22 22 20 18 15 13 14 13 12 11 9 11 13 11 9 7 8 7 5 2 9 6 8 5 9 14 18 18 14 13 10 10 9 10 11 12 12 10 8 9 10 12 15 16 16 17 17 16 14 17 16 14
11 11 14 16 10 8 10 12 11 14 15 15 16 19 18 18 15 14 13 8 7 5 10 13 12 10 7 3 4 5 8 5 2 2 5 4 2 10 14 15 13 14 14 13 13 15 14 13 12 13 10 12 11 10 10 12 13 17 18 16 14 15 15
10 13 13 12 11 11 10 6 15 15 12 14 21 19 20 19 15 11 8 9 12 11 10 6 12 9 8 6 4 5 5 4 2 3 2 3 3 2 2 2 10 11 8 4 13 12 11 12 14 13 12 12 9 10 10 9 12 12 12 13 12 15 15
8 10 13 12 17 12 4 9 18 15 6 11 10 10 22 21 20 18 18 15 13 9 3 4 8 5 6 4 6 7 8 6 7 6 6 5 5 5 3 3 6 3 5 5 2 1 5 12 12 11 11 10 9 10 9 10 10 9 10 12 9 12 15
6 9 9 11 12 10 9 9 12 6 10 12 8 9 12 23 21 10 5 12 11 9 8 8 6 6 6 6 6 5 6 6 4 1 4 6 7 7 7 5 3 1 1 3 4 4 4 7 8 13 12 12 13 14 14 12 11 10 9 11 11 9 13
6 4 11 14 1 12 17 16 15 9 9 9 8 6 6 6 10 12 8 7 6 10 8 4 5 3 3 1 3 6 8 7 5 6 5 6 2 10 11 6 5 3 3 4 4 4 4 2 3 5 11 13 12 12 13 13 10 11 10 11 12 11 12
6 7 7 11 10 8 10 7 8 9 6 7 7 8 5 4 5 2 3 6 7 9 11 15 13 11 8 5 4 2 1 2 5 2 12 5 8 10 15 16 4 9 8 7 6 4 3 3 5 6 6 6 11 9 10 10 11 11 12 12 12 11 11
8 9 9 8 12 8 6 15 13 8 3 9 6 4 7 6 8 10 8 6 5 4 4 10 8 4 5 6 3 8 7 10 11 11 10 11 10 10 10 12 13 12 9 7 6 4 4 6 5 5 6 7 4 9 9 12 13 12 12 12 11 12 11
9 9 8 7 5 3 6 10 16 11 8 7 2 5 7 5 3 8 9 11 10 9 1 6 4 4 7 6 4 12 9 12 10 11 9 9 9 10 10 11 12 7 4 3 3 4 5 3 6 7 8 6 6 4 11 12 11 12 13 12 10 10 10
10 10 8 5 2 4 9 13 5 7 10 10 11 9 5 14 10 9 4 3 10 10 7 5 3 3 3 7 11 10 11 10 10 9 9 9 10 9 10 10 10 6 5 4 4 5 2 2 6 6 5 5 6 6 5 8 10 11 10 9 8 9 9
9 6 6 6 1 8 5 2 13 11 4 11 6 6 9 7 13 11 12 9 9 7 9 7 8 8 9 10 10 11 11 11 9 10 10 11 10 10 10 8 6 4 7 5 4 5 2 3 4 5 4 5 3 4 4 7 10 7 6 9 9 9 10
10 8 9 6 5 7 20 5 13 16 8 1 4 6 11 14 12 17 12 13 12 11 9 11 9 9 10 10 12 13 13 12 11 10 10 10 11 11 11 9 10 11 8 8 7 7 7 8 8 8 7 5 4 4 3 3 3 4 4 8 9 10 10
9 10 10 4 5 5 14 12 7 5 8 5 8 7 7 11 11 11 9 13 11 11 9 8 8 8 9 10 11 11 11 11 10 11 11 10 11 11 11 10 11 11 9 7 6 6 7 7 6 6 5 6 4 3 4 3 2 1 3 6 8 9 10
7 5 3 6 7 7 5 12 9 7 5 9 8 9 4 9 8 10 8 9 10 10 9 7 7 6 9 10 11 11 12 11 11 11 12 11 10 9 7 8 10 10 9 6 6 4 3 5 4 4 5 4 2 2 2 1 2 1 1 5 7 8 8
7 9 9 9 7 6 7 13 9 8 5 6 10 9 7 7 8 8 9 9 10 10 10 9 7 8 8 10 10 11 11 11 9 7 8 9 8 7 7 9 10 10 11 3 5 7 7 1 3 3 5 3 2 5 5 3 2 2 1 3 5 6 7
4 3 1 5 7 6 8 9 7 8 8 8 9 10 8 8 8 9 9 10 9 9 9 9 9 10 10 9 10 10 10 11 10 8 6 7 8 9 9 9 9 9 10 5 5 9 10 12 8 5 4 5 5 4 5 3 2 1 1 3 4 4 5
8 9 9 12 15 14 12 8 7 8 8 8 8 6 8 9 9 9 10 10 10 10 8 10 9 10 10 10 8 9 10 9 9 10 6 5 6 7 8 7 7 9 9 6 6 5 7 8 9 7 8 7 5 3 1 4 2 0 2 4 5 4 6
7 10 13 12 11 14 13 10 5 7 9 8 7 7 9 10 11 11 11 10 11 11 10 10 10 10 10 10 10 9 9 10 9 10 9 5 5 5 5 5 5 6 9 9 8 7 6 6 6 5 7 9 9 4 3 1 3 1 2 4 4 6 5
9 8 7 5 9 8 7 8 5 5 10 10 9 9 8 9 11 12 13 13 12 12 12 11 11 10 10 11 11 12 9 9 10 9 8 7 6 5 3 3 3 5 5 6 6 7 6 6 6 6 6 6 7 9 8 7 2 3 3 4 4 5 5
9 8 10 7 9 11 10 12 13 12 10 12 13 13 11 9 10 11 13 14 14 14 14 13 12 12 11 12 13 12 11 11 11 10 7 5 4 4 3 2 2 3 4 5 6 6 3 2 5 5 5 5 5 5 6 6 5 3 3 4 6 6 6
16 15 13 11 11 12 10 9 10 12 10 10 12 15 16 13 11 11 12 12 14 14 14 13 13 12 12 11 11 12 11 12 10 7 5 3 3 3 1 1 1 1 3 4 3 3 2 3 3 3 5 6 6 5 6 6 6 6 7 5 5 5 6
13 13 14 13 13 14 12 12 10 10 10 10 10 11 15 17 17 15 15 14 13 14 14 14 13 12 12 11 10 10 11 11 8 6 4 3 4 5 2 1 2 3 3 2 1 2 2 3 5 4 4 3 3 5 6 7 8 8 7 6 5 5 6
Wind_Direction
200 201 195 208 208 203 181 197 206 211 198 213 227 230 217 225 225 230 216 217 217 247 252 231 228 229 216 206 223 228 220 188 172 184 184 187 192 176 170 176 183 181 180 186 192 193 196 196 195 195 192 189 184 180 180 181 181 180 181 181 181 183 182
215 195 195 205 215 219 176 206 201 205 216 221 224 238 210 224 230 220 218 228 215 203 227 213 213 221 233 217 203 218 229 196 179 189 185 186 188 184 165 163 173 177 174 181 189 196 197 198 195 195 191 189 182 180 180 178 179 180 183 182 184 183 182
197 186 188 204 220 222 220 201 180 203 184 203 205 242 231 213 219 240 212 225 238 198 208 199 207 215 207 229 214 205 214 218 191 196 186 175 182 185 169 166 176 182 183 185 192 195 197 195 193 194 186 184 183 183 184 184 181 180 181 183 185 184 183
181 184 185 203 201 214 232 214 195 204 218 204 201 211 243 240 228 218 228 237 243 216 209 194 199 200 201 212 232 209 205 212 194 200 192 161 175 186 175 162 170 179 182 187 190 193 194 192 190 192 190 190 191 187 184 187 187 184 183 183 182 183 185
182 196 189 203 193 196 204 222 207 185 221 191 222 198 222 220 245 224 222 217 225 246 221 185 201 197 187 198 219 217 204 202 196 197 191 161 173 183 187 171 171 178 183 186 187 193 196 193 189 190 192 192 192 189 189 188 187 187 186 186 184 184 185
200 201 190 198 199 199 202 207 211 195 190 200 196 215 198 225 235 244 239 256 277 227 201 192 198 159 170 184 215 200 204 205 191 192 194 167 177 172 186 180 174 175 176 176 172 185 205 199 190 193 194 192 191 192 192 190 190 190 189 188 188 184 186
210 195 187 198 206 205 207 203 213 203 193 205 204 213 193 206 226 244 248 269 116 350 36 94 143 146 173 178 197 186 196 210 196 190 196 184 167 172 187 186 175 168 162 164 159 174 208 205 195 192 194 194 194 194 192 192 192 192 191 191 189 186 188
225 184 191 189 208 208 208 207 210 210 205 197 212 210 202 206 201 213 218 238 136 68 108 194 125 121 161 169 185 182 190 223 206 183 194 177 155 168 192 189 182 159 159 159 170 181 201 204 191 191 196 196 195 194 195 194 195 193 192 191 189 186 188
250 185 183 198 193 216 217 205 201 214 213 197 205 215 205 221 197 206 213 209 216 118 89 70 125 156 206 163 183 192 174 209 219 170 188 153 158 166 185 193 160 145 155 165 176 186 192 189 191 189 194 197 197 197 197 198 197 194 193 191 190 187 187
212 192 189 193 190 200 215 212 199 205 215 207 191 207 199 216 184 203 211 214 166 127 113 110 138 179 238 154 171 202 157 183 218 169 188 156 158 161 178 190 148 156 158 165 173 184 183 180 190 186 190 198 201 199 200 199 196 194 195 194 192 187 188
220 215 194 200 199 190 210 209 208 195 210 217 205 199 212 201 188 200 198 232 130 151 150 170 196 185 203 162 164 196 130 82 45 60 73 87 119 156 165 178 152 155 162 164 175 182 180 184 190 191 191 198 202 198 198 199 198 196 194 194 191 190 189
243 86 89 19 232 201 202 216 206 200 197 214 210 197 205 169 190 208 175 145 152 167 177 185 174 121 38 119 164 163 110 94 76 81 75 96 107 100 95 97 90 141 156 162 169 173 177 181 186 194 196 198 201 196 196 198 200 198 196 195 191 189 189
249 245 271 287 328 322 209 210 213 200 196 204 214 202 205 178 201 192 165 146 188 148 138 114 127 152 173 83 107 115 108 112 127 123 115 123 120 118 119 69 68 115 153 163 167 167 174 180 187 195 198 198 196 195 197 195 201 202 193 190 192 191 189
243 244 241 231 288 272 311 217 214 205 196 199 208 212 205 197 181 227 173 160 164 140 123 165 155 131 123 119 147 134 108 103 77 86 160 148 138 136 134 136 139 138 135 127 154 164 178 188 189 196 199 196 192 193 195 196 199 202 191 188 189 195 194
258 249 246 262 263 278 269 291 219 209 200 199 200 212 209 201 193 202 205 161 198 148 155 169 124 170 143 149 90 122 132 151 157 157 193 148 147 146 145 151 162 155 158 156 165 175 190 207 203 200 198 198 197 200 198 200 197 200 194 185 189 194 195
266 251 260 245 217 247 256 285 225 198 198 199 192 205 207 201 192 185 214 166 190 134 156 141 154 77 62 61 65 123 69 59 55 137 157 137 158 158 155 162 164 173 170 178 178 188 193 199 207 209 199 195 199 206 199 200 198 200 205 191 189 191 191
259 260 250 223 210 247 268 262 263 199 227 217 200 201 207 210 197 186 207 164 197 193 169 140 123 134 134 120 108 45 53 12 8 16 18 357 20 124 162 177 161 160 175 184 190 191 193 195 199 205 203 200 202 207 202 195 196 200 205 201 186 188 188
255 255 274 247 199 221 234 233 254 242 226 226 201 197 200 202 208 197 200 157 178 210 207 194 129 149 156 176 191 45 29 77 33 328 36 310 268 298 14 61 161 185 187 172 181 181 187 187 192 197 203 204 201 200 210 193 200 203 199 206 187 186 187
251 245 239 237 222 219 235 217 233 228 256 283 274 228 190 196 195 201 185 185 155 102 69 71 64 76 93 133 124 176 174 189 172 202 227 225 268 278 301 354 315 9 95 107 126 168 216 185 185 187 190 202 194 200 208 207 200 199 198 203 199 183 185
238 213 221 238 222 227 204 224 249 223 239 262 275 272 259 196 191 173 173 126 117 122 148 163 159 161 159 106 66 21 30 35 15 334 234 216 229 234 224 212 177 3 116 91 218 222 214 224 190 176 186 191 196 203 204 211 203 200 198 199 204 182 184
242 242 238 226 197 212 214 230 206 191 229 234 249 252 258 78 116 144 174 132 144 144 166 177 106 96 71 147 190 194 228 220 241 255 248 253 345 11 352 280 240 153 100 133 57 43 1 326 260 196 180 186 198 198 202 206 204 202 199 199 204 192 186
270 264 243 217 211 207 202 277 248 206 251 292 238 242 256 241 232 105 126 193 193 204 196 199 202 189 196 190 142 149 48 260 238 27 360 338 53 10 15 357 63 63 45 54 67 0 2 317 297 305 298 199 181 193 195 196 195 204 205 205 203 195 186
282 255 262 221 212 206 212 219 209 147 222 245 329 238 229 158 233 208 223 213 170 38 26 79 60 85 145 148 157 63 17 18 9 17 16 16 21 19 19 38 15 25 37 30 7 343 327 290 282 263 255 282 239 186 189 198 199 200 208 208 199 197 188
262 265 249 238 199 161 302 220 190 169 184 219 129 210 167 38 151 342 217 204 126 174 98 35 80 113 170 169 89 30 6 10 3 1 356 6 14 10 356 26 14 2 337 321 327 272 266 267 252 253 250 235 252 236 193 196 198 198 206 205 193 190 181
251 266 265 245 160 94 30 15 73 186 190 191 181 203 56 324 15 359 319 61 68 63 61 109 150 128 326 344 359 358 358 354 352 348 352 357 8 3 354 0 346 349 344 337 358 334 0 355 325 290 253 225 223 243 221 198 206 208 199 188 180 181 179
246 231 267 249 257 52 355 64 31 17 204 195 158 27 299 335 14 8 27 55 53 52 53 43 40 14 10 350 353 354 359 356 353 358 5 2 0 359 1 328 303 359 4 10 330 303 304 323 275 256 287 305 287 244 237 213 208 208 166 173 172 173 177
255 223 222 234 239 9 337 98 48 22 37 113 313 358 350 40 24 15 17 48 35 32 29 13 14 6 358 1 3 357 349 350 350 351 4 7 1 358 348 340 17 9 0 351 335 323 335 10 355 343 316 282 276 291 279 285 239 189 152 167 165 167 172
233 212 215 222 42 315 24 42 75 28 39 66 33 355 10 47 26 18 17 30 20 25 22 13 5 350 348 5 357 348 346 349 344 353 1 3 351 340 332 338 4 356 336 336 343 340 356 342 332 321 303 307 286 283 296 315 310 351 119 156 154 161 167
240 260 271 3 310 346 15 45 27 63 15 32 47 23 12 35 26 10 24 17 8 3 4 1 0 351 3 357 354 351 347 345 346 348 348 344 335 319 325 18 7 339 324 342 331 325 314 317 317 304 289 279 281 245 314 326 330 335 95 138 148 156 160
319 288 246 254 287 315 19 36 10 355 9 12 18 28 17 19 6 359 8 7 0 356 356 347 3 350 347 350 354 350 342 340 338 350 343 333 334 335 350 20 2 331 311 344 2 31 19 263 211 338 8 11 104 62 10 349 229 316 293 118 140 149 152
312 284 52 244 283 324 358 31 350 342 347 357 16 14 11 358 348 350 353 1 346 356 340 359 348 338 349 354 354 339 332 341 343 339 350 340 355 353 355 359 344 330 327 326 37 22 15 2 14 47 48 50 48 27 14 5 40 226 144 105 110 123 140
268 278 300 313 320 318 317 332 337 316 323 328 19 358 349 342 335 337 347 342 342 342 345 1 345 345 349 353 345 335 337 340 332 339 336 351 337 351 350 345 335 336 336 333 29 42 18 4 10 19 29 21 30 10 163 258 111 345 117 140 154 159 164
278 274 275 278 289 292 293 293 280 292 294 309 359 358 344 333 335 337 336 340 331 335 343 350 352 346 348 339 338 332 341 330 336 344 339 338 320 322 325 345 345 26 10 19 27 18 23 6 10 22 20 15 2 1 345 0 53 264 139 184 156 179 180
258 252 260 256 259 266 265 263 274 342 350 350 341 334 334 333 330 333 328 328 329 331 338 343 344 343 349 343 339 336 332 326 326 332 331 332 322 323 318 299 320 14 41 46 40 36 30 8 12 14 15 15 19 12 6 345 222 179 163 180 181 188 183
254 254 256 273 289 284 282 296 310 319 330 338 329 324 323 319 321 326 323 321 328 328 330 333 331 342 343 346 338 328 328 322 320 316 316 321 318 296 294 342 19 21 25 44 50 58 40 9 35 28 23 21 14 24 2 359 358 101 67 42 60 68 60
276 283 293 315 312 300 307 304 314 316 318 309 312 312 311 314 319 319 317 317 317 318 316 319 328 331 335 331 326 322 318 311 310 319 304 309 318 292 205 153 66 75 70 62 80 76 70 60 52 52 40 17 4 18 16 19 24 50 60 56 51 64 65
269 281 288 290 287 283 280 278 281 287 296 296 296 302 305 310 313 315 314 313 310 308 309 309 315 321 321 320 315 308 312 304 293 289 300 304 302 282 276 92 153 137 114 86 82 153 161 165 145 112 91 72 25 16 35 36 40 47 57 63 72 64 56